Printer-friendly version

IAU Minor Planet Center

Minor Planet Center

MPEC 2006-U40 : 2006 UT17

The following Minor Planet Electronic Circular may be linked-to from your own Web pages, but must not otherwise be redistributed electronically.


Read MPEC 2006-U39 Read MPEC 2006-U41


M.P.E.C. 2006-U40                                Issued 2006 Oct. 21, 11:53 UT

     The Minor Planet Electronic Circulars contain information on unusual
         minor planets and routine data on comets.  They are published
   on behalf of Commission 20 of the International Astronomical Union by the
          Minor Planet Center, Smithsonian Astrophysical Observatory,
                          Cambridge, MA 02138, U.S.A.

             Prepared using the Tamkin Foundation Computer Network

                              MPC@CFA.HARVARD.EDU
          URL http://cfa-www.harvard.edu/iau/mpc.html  ISSN 1523-6714

                                   2006 UT17

Observations:
     K06U17T* C2006 10 20.34584 02 38 00.70 +18 57 47.4          21.6 V EU040G96
     K06U17T  C2006 10 20.35266 02 38 02.14 +18 58 03.1          21.5 V EU040G96
     K06U17T  C2006 10 20.35954 02 38 03.58 +18 58 18.3          21.2 V EU040G96
     K06U17T  C2006 10 20.36639 02 38 05.06 +18 58 33.6          22.1 V EU040G96
     K06U17T  C2006 10 20.38655 02 38 09.45 +18 59 17.9          20.8 V EU040G96
     K06U17T  C2006 10 20.38743 02 38 09.63 +18 59 20.1          21.6 V EU040G96
     K06U17T  C2006 10 20.38833 02 38 09.85 +18 59 21.9          21.5 V EU040G96
     K06U17T  C2006 10 20.38921 02 38 09.99 +18 59 23.9          22.1 V EU040G96
     K06U17T  C2006 10 21.36221 02 42 04.82 +19 36 24.2          21.1 V EU040G96
     K06U17T  C2006 10 21.36398 02 42 05.22 +19 36 28.2          21.1 V EU040G96
     K06U17T  C2006 10 21.36577 02 42 05.65 +19 36 32.3          20.5 V EU040G96
     K06U17T  C2006 10 21.36755 02 42 06.04 +19 36 37.1          21.4 V EU040G96

Observer details:
G96 Mt. Lemmon Survey.  Observers R. E. Hill, E. J. Christensen.  Measurers
    E. C. Beshore, E. J. Christensen, G. J. Garradd, A. R. Gibbs, A. D. Grauer,
    R. E. Hill, R. A. Kowalski, S. M. Larson, R. H. McNaught.  1.5-m reflector
    + CCD.

Orbital elements:
2006 UT17                                                Earth MOID = 0.0718 AU
Epoch 2006 Sept. 22.0 TT = JDT 2454000.5                MPC
M 344.59570              (2000.0)            P               Q
n   0.22936214     Peri.   55.93706     +0.32528985     -0.94556720
a   2.6431485      Node    15.08841     +0.85519079     +0.28990777
e   0.6020976      Incl.    2.07912     +0.40352848     +0.14783828
P   4.30           H   24.1           G   0.15           U   9
Residuals in seconds of arc
061020 G96  0.4+  0.4-    061020 G96  0.2+  0.1-    061021 G96  0.1-  0.1-
061020 G96  0.1+  0.2+    061020 G96  0.0   0.1+    061021 G96  0.1-  0.2-
061020 G96  0.5-  0.1+    061020 G96  0.4+  0.1-    061021 G96  0.2+  0.2-
061020 G96  0.4-  0.2+    061020 G96  0.3-  0.0     061021 G96  0.0   0.5+

Ephemeris:
2006 UT17                a,e,i = 2.64, 0.60, 2                   q = 1.0517
Date    TT    R. A. (2000) Decl.     Delta      r     Elong.  Phase     V
2006 10 22    02 44.76   +20 01.6    0.166    1.155   163.0    14.6    21.3
2006 11 01    03 43.55   +27 57.6    0.125    1.109   157.0    20.5    20.8
2006 11 11    05 27.35   +36 07.3    0.104    1.075   143.1    33.6    20.7
2006 11 21    07 34.71   +37 21.2    0.106    1.056   127.4    48.0    21.2
2006 12 01    09 03.05   +32 38.1    0.126    1.052   118.7    55.3    21.7

Timothy B. Spahr             (C) Copyright 2006 MPC           M.P.E.C. 2006-U40

Read MPEC 2006-U39 Read MPEC 2006-U41


Our Web policy. Index to the CBAT/MPC/ICQ pages.


Valid HTML 4.01!